TimeEST,TemperatureF,Dew PointF,Humidity,Sea Level PressureIn,VisibilityMPH,Wind Direction,Wind SpeedMPH,Gust SpeedMPH,PrecipitationIn,Events,Conditions,WindDirDegrees,DateUTC
12:53 AM,77.0,72.0,84,29.91,10.0,SSW,4.6,-,N/A,,Mostly Cloudy,200,2013-02-27 05:53:00
1:53 AM,75.9,72.0,87,29.90,10.0,SSW,5.8,-,N/A,,Scattered Clouds,210,2013-02-27 06:53:00
2:53 AM,75.9,73.0,91,29.88,7.0,Calm,Calm,-,N/A,,Mostly Cloudy,0,2013-02-27 07:53:00
3:53 AM,75.9,73.0,91,29.88,10.0,WSW,3.5,-,N/A,,Mostly Cloudy,250,2013-02-27 08:53:00
4:12 AM,75.2,73.4,94,29.88,9.0,West,5.8,-,N/A,,Mostly Cloudy,270,2013-02-27 09:12:00
4:53 AM,73.9,72.0,93,29.89,5.0,West,4.6,-,N/A,,Overcast,280,2013-02-27 09:53:00
5:53 AM,73.9,71.1,91,29.91,6.0,WNW,5.8,-,0.00,Rain,Light Rain,290,2013-02-27 10:53:00
6:30 AM,73.4,71.6,94,29.92,6.0,NW,4.6,-,0.00,Rain,Light Rain,310,2013-02-27 11:30:00
6:53 AM,71.1,66.0,84,29.94,6.0,NW,10.4,-,0.00,Rain,Light Rain,320,2013-02-27 11:53:00
7:23 AM,71.6,64.4,78,29.94,7.0,NNW,5.8,-,0.00,,Overcast,330,2013-02-27 12:23:00
7:53 AM,71.1,64.9,81,29.95,7.0,NW,6.9,-,0.00,,Mostly Cloudy,310,2013-02-27 12:53:00
8:53 AM,73.0,66.9,81,29.96,10.0,Variable,3.5,-,N/A,,Mostly Cloudy,0,2013-02-27 13:53:00
9:53 AM,75.0,64.9,71,29.97,10.0,NW,8.1,-,N/A,,Mostly Cloudy,320,2013-02-27 14:53:00
10:31 AM,75.2,64.4,69,29.98,10.0,NW,3.5,-,N/A,,Overcast,310,2013-02-27 15:31:00
10:53 AM,75.9,64.0,67,29.98,10.0,Variable,4.6,-,N/A,,Overcast,0,2013-02-27 15:53:00
11:03 AM,75.2,64.4,69,29.98,10.0,Variable,3.5,-,N/A,,Mostly Cloudy,0,2013-02-27 16:03:00
11:53 AM,75.0,64.0,69,29.98,10.0,West,6.9,-,N/A,,Overcast,280,2013-02-27 16:53:00
12:05 PM,73.4,62.6,69,29.98,10.0,NW,9.2,-,N/A,,Overcast,310,2013-02-27 17:05:00
12:53 PM,73.0,64.0,73,29.97,10.0,NNW,9.2,-,N/A,,Overcast,330,2013-02-27 17:53:00
1:53 PM,73.0,64.0,73,29.95,10.0,NW,6.9,-,N/A,,Overcast,320,2013-02-27 18:53:00
2:26 PM,73.4,64.4,73,29.94,10.0,NNW,3.5,-,0.00,,Mostly Cloudy,330,2013-02-27 19:26:00
2:53 PM,75.0,64.9,71,29.93,10.0,Calm,Calm,-,0.00,,Mostly Cloudy,0,2013-02-27 19:53:00
3:53 PM,73.0,64.0,73,29.93,10.0,NW,5.8,-,N/A,,Overcast,310,2013-02-27 20:53:00
4:53 PM,72.0,64.9,78,29.93,10.0,Calm,Calm,-,N/A,,Overcast,0,2013-02-27 21:53:00
5:53 PM,71.1,64.0,78,29.94,10.0,NNW,5.8,-,N/A,,Mostly Cloudy,330,2013-02-27 22:53:00
6:53 PM,70.0,64.9,84,29.95,10.0,NNW,4.6,-,N/A,,Overcast,330,2013-02-27 23:53:00
7:02 PM,69.8,64.4,83,29.95,10.0,NNW,5.8,-,N/A,,Overcast,340,2013-02-28 00:02:00
7:53 PM,70.0,64.0,81,29.96,10.0,NW,3.5,-,N/A,,Overcast,320,2013-02-28 00:53:00
8:53 PM,68.0,64.0,87,29.99,10.0,NW,4.6,-,0.00,Rain,Light Rain,320,2013-02-28 01:53:00
9:15 PM,66.2,64.4,94,29.99,5.0,NNW,5.8,-,0.04,Rain,Rain,330,2013-02-28 02:15:00
9:53 PM,66.9,64.9,93,29.98,10.0,Calm,Calm,-,0.09,,Overcast,0,2013-02-28 02:53:00
10:23 PM,66.2,64.4,94,29.98,10.0,Calm,Calm,-,N/A,,Overcast,0,2013-02-28 03:23:00
10:53 PM,68.0,66.0,93,29.98,10.0,Calm,Calm,-,N/A,,Overcast,0,2013-02-28 03:53:00
11:53 PM,66.9,64.9,93,29.98,7.0,WNW,4.6,-,0.01,,Overcast,300,2013-02-28 04:53:00